Location: Melbourne
(37.8170°S, 144.9670°E)
Time: 09:40:36
(UTC+11:00)

Aureole 2 Rocket - Visible Passes

Search period start: 28 February 2015 00:00
Search period end: 10 March 2015 00:00
Orbit: 344 x 706 km, 73.9° (Epoch: 26 February)

Date Brightness Start Highest point End Pass type
(mag) Time Alt. Az. Time Alt. Az. Time Alt. Az.
05 Mar 2.8 06:38:59 10° NNW 06:42:39 66° WSW 06:46:54 10° SSE visible
06 Mar 2.8 06:26:28 10° NNW 06:30:12 67° WSW 06:34:29 10° SSE visible
07 Mar 2.8 06:13:56 10° NNW 06:17:42 68° WSW 06:22:02 10° SSE visible
08 Mar 2.8 06:02:04 15° NNW 06:05:11 69° WSW 06:09:34 10° SSE visible
09 Mar 2.8 05:50:31 26° NNW 05:52:39 70° WSW 05:57:05 10° SSE visible
